Regional Weather Roundup
Issued by NWS Charleston, SC

Current Version | Previous Version | Graphics & Text | Print | Product List | Glossary On
Versions: 1 2 3 4 5 6 7 8 9 10 11 12 13 14 15 16 17 18 19 20 21 22 23 24 25 26 27 28 29 30 31 32 33 34 35 36 37 38 39 40 41 42 43 44 45 46 47 48 49 50
000 ASUS42 KCHS 201212 RWRCHS Regional Weather Roundup National Weather Service Charleston SC 700 AM EST SAT JAN 20 2018 NOTE: "fair" indicates few or no clouds below 12,000 feet with no significant weather and/or obstructions to visibility. Not all stations are quality controlled. Use data with caution, especially dewpoint observations. SCZ027-030-031-034>040-042>050-201300- ...Southeast South Carolina... CITY SKY/WX TMP DP RH WIND PRES REMARKS N Charleston FAIR 34 23 64 SW3 30.27R 6HR MIN TEMP: 32; 6HR MAX TEMP: 39; Waterfront Prk NOT AVBL Mount Pleasant FAIR 32 30 93 CALM 30.27R Johns Island FAIR 34 25 69 CALM 30.27R Pinopolis N/A 37 25 60 SW7 30.17R WCI 32 Moncks Corner FAIR 27 23 86 CALM 30.26R Summerville FAIR 28 27 93 CALM 30.27R Beaufort MCAS FAIR 30 25 81 CALM 30.27S 6HR MIN TEMP: 29; 6HR MAX TEMP: 39; Beaufort Arpt FAIR 36 25 64 SW6 30.27R WCI 31 Hilton Head Is CLEAR 36 23 60 W5 30.28R WCI 32 Walterboro FAIR 30 21 69 CALM 30.27S Allendale FAIR 28 25 86 CALM 30.25R ...Southern Midlands and Pee Dee... CITY SKY/WX TMP DP RH WIND PRES REMARKS Georgetown FAIR 30 25 80 W6 30.26R WCI 24 Kingstree FAIR 27 21 80 CALM 30.24R Orangeburg FAIR 28 20 71 CALM 30.24R 6HR MIN TEMP: 26; 6HR MAX TEMP: 33; Barnwell N/A 27 21 80 CALM 30.25R Aiken FAIR 32 14 47 W6 30.25S WCI 26 Manning FAIR 28 23 80 MISG 30.24R Columbia FAIR 26 19 74 W5 30.22R WCI 20 6HR MIN TEMP: 25; 6HR MAX TEMP: 32; Sumter FAIR 34 13 41 CALM 30.20R 6HR MIN TEMP: 29; 6HR MAX TEMP: 40; Florence FAIR 27 20 75 SW3 30.22R 6HR MIN TEMP: 27; 6HR MAX TEMP: 35; Myrtle Beach FAIR 35 21 56 SW6 30.26R WCI 30 N Myrtle Beach FAIR 32 27 81 CALM 30.24R 6HR MIN TEMP: 30; 6HR MAX TEMP: 44; $$ GAZ063-065-086>088-099>101-113>116-118-119-134>141-150-201300- ...Southeast Georgia... CITY SKY/WX TMP DP RH WIND PRES REMARKS Savannah Arpt FAIR 33 22 63 CALM 30.29R 6HR MIN TEMP: 30; 6HR MAX TEMP: 38; Hunter AAF FAIR 31 24 76 CALM 30.26R 6HR MIN TEMP: 31; 6HR MAX TEMP: 34; Fort Stewart FAIR 30 26 86 CALM 30.27R 6HR MIN TEMP: 29; 6HR MAX TEMP: 34; Statesboro FAIR 29 22 76 CALM 30.28R Sylvania FAIR 30 28 92 CALM 30.28R Claxton FAIR 29 27 92 CALM 30.28S ...CSRA, Central and far Southeast Georgia... CITY SKY/WX TMP DP RH WIND PRES REMARKS Thomson FAIR 33 15 47 N7 30.29S WCI 27 Augusta-Bush FAIR 23 20 88 CALM 30.25R 6HR MIN TEMP: 21; 6HR MAX TEMP: 28; Augusta-Daniel FAIR 44 11 26 W7 30.24S Swainsboro FAIR 28 27 93 CALM 30.28S Vidalia FAIR 30 28 93 W3 30.28R Eastman FAIR 27 22 79 CALM 30.32R Hazlehurst FAIR 34 24 66 CALM 30.28R Alma FAIR 29 25 85 CALM 30.29R 6HR MIN TEMP: 29; 6HR MAX TEMP: 33; Waycross FAIR 30 27 88 CALM 30.29R Jesup NOT AVBL Baxley FAIR 28 28 100 CALM 30.28R Brunswick FAIR 30 30 100 CALM 30.30S Saint Simons FAIR 35 33 92 CALM 30.29S 6HR MIN TEMP: 34; 6HR MAX TEMP: 39; $$ SCZ027-028-034-036>038-045-046-048>050-GAZ119-141-201300- ...Lake and Supplemental Coastal Observations... STATION/POSITION TIME TEMP WIND PRES WAVE SWELL AIR SEA DIR/SP/G HT/PER HT/PER/DIR (UTC) (F) (DEG/KT/KT) (MB) (FT/S) (FT/S/D) Winyah Bay 1045 38 270/ 3 1024.0 Lake Murray 1120 43 260/ 8/ 12 1022.4 ACE Basin NERRS 1045 33 CALM 1024.0 Fort Pulaski 1136 40 45 230/ 2/ 3 1025.5R Sapelo Island 1100 38 230/ 2 1025.0 $$ ANZ835-935-AMZ111-154-330-350-352-354-370-450-454-472-201300- ...C-MAN and Buoy Observations... STATION/POSITION TIME TEMP WIND PRES WAVE SWELL AIR SEA DIR/SP/G HT/PER HT/PER/DIR (UTC) (F) (DEG/KT/KT) (MB) (FT/S) (FT/S/D) Buoy 41004 1150 58 68 270/ 14/ 17 1024.5R 4/ 5 2/120/10 Buoy 41008 1150 48 51 280/ 8/ 8 1025.6R 2/10 2/ 90/10 Folly Beach CMAN 1200 39 250/ 4/ 5 1025.3R Capers Nearshore 1108 41 47 260/ 8/ 12 1024.1R Fripp Nearshore 1108 42 45 240/ 4/ 8 1024.6R STATION/POSITION TIME TEMP WIND PRES WAVE SWELL AIR SEA DIR/SP/G HT/PER HT/PER/DIR (UTC) (F) (DEG/KT/KT) (MB) (FT/S) (FT/S/D) 5E St. Marys GA 1200 48 N/A 2/12 2/ 80/12 Frying Pan Buoy 1150 55 60 260/ 14/ 17 1024.1R 3/ 5 2/110/11 Buoy 41025 1150 58 70 250/ 19/ 23 1022.1R 4/ 6 2/ 70/ 9 Cape Lookout NC 1200 250/ 9/ 11 1023.0R Buoy 41002 1150 65 70 230/ 12/ 16 1024.6R 4/10 3/ 30/10 Buoy 41010 NOT AVBL St Augustine FL 1200 43 50 340/ 6/ 6 1025.4R $$

USA.gov is the U.S. government's official web portal to all federal, state and local government web resources and services.